Bowling Green, KY

12:46 AM CST on December 16, 2017 (GMT -0600)
Bowling Green-Warren County Regional

Weather History for KBWG - October, 2013

Change the Weather History Date:

Tuesday, October 8, 2013

  Actual Average Record
Temperature  
Mean Temperature 57 °F 61 °F  
Max Temperature 70 °F 74 °F 93 °F (1916)
Min Temperature 44 °F 49 °F 23 °F (1889)
Degree Days  
Heating Degree Days 8 5  
Month to date heating degree days 19 36  
Since 1 July heating degree days 31 72  
Cooling Degree Days 0 2  
Month to date cooling degree days 40 17  
Year to date cooling degree days 1492 1472  
Growing Degree Days 8 (Base 50)    
Moisture  
Dew Point 46 °F    
Average Humidity 67    
Maximum Humidity 93    
Minimum Humidity 40    
Precipitation  
Precipitation 0.00 in 0.11 in 2.30 in (1927)
Month to date precipitation 2.07 0.90  
Year to date precipitation 49.86 38.39  
Snow  
Snow 0.00 in 0.00 in 0.00 in ()
Month to date snowfall 0.0 0.0  
Since 1 July snowfall 0.0 0.0  
Since 1 September snowfall 0.0 0.0  
Snow Depth 0.00 in    
Sea Level Pressure  
Sea Level Pressure 30.17 in    
Wind  
Wind Speed 5 mph (NE)    
Max Wind Speed 17 mph    
Max Gust Speed 23 mph    
Visibility 10 miles    
Events      
T = Trace of Precipitation, MM = Missing Value Source: NWS Daily Summary

Daily Weather History Graph

Daily Weather History Graph

Search for Another Location

Airport or City:

Trip Planner

Search our weather history database for the weather conditions in past years. The results will help you decide how hot, cold, wet, or windy it might be!

Date:

Astronomy

Oct. 08, 2013 Rise Set
Actual Time 6:47 AM CDT 6:18 PM CDT
Civil Twilight 6:21 AM CDT 6:44 PM CDT
Nautical Twilight 5:51 AM CDT 7:14 PM CDT
Astronomical Twilight 5:21 AM CDT 7:44 PM CDT
Moon 10:35 AM CDT (10/8) 9:00 PM CDT (10/8)
Length of Visible Light 12h 23m
Length of Day
11h 31m
Waxing Crescent, 16% of the Moon is Illuminated
Oct 8
Waxing Crescent
Oct 11
First Quarter
Oct 18
Full
Oct 26
Last Quarter
Nov 3
New

Hourly Weather History & Observations

Time (CDT) Temp. Windchill Dew Point Humidity Pressure Visibility Wind Dir Wind Speed Gust Speed Precip Events Conditions
12:53 AM 48.0 °F - 45.0 °F 89% 30.15 in 10.0 mi Calm Calm - N/A   Clear
1:53 AM 45.0 °F 43.5 °F 43.0 °F 93% 30.16 in 10.0 mi NNE 3.5 mph - N/A   Clear
2:53 AM 46.9 °F - 45.0 °F 93% 30.16 in 10.0 mi Calm Calm - N/A   Clear
3:53 AM 46.0 °F - 44.1 °F 93% 30.16 in 9.0 mi Calm Calm - N/A   Clear
4:53 AM 45.0 °F - 43.0 °F 93% 30.17 in 10.0 mi Calm Calm - N/A   Clear
5:53 AM 46.0 °F - 43.0 °F 89% 30.17 in 10.0 mi Calm Calm - N/A   Clear
6:53 AM 45.0 °F - 42.1 °F 90% 30.20 in 10.0 mi Calm Calm - N/A   Clear
7:53 AM 50.0 °F - 45.0 °F 83% 30.21 in 10.0 mi NE 6.9 mph - N/A   Clear
8:53 AM 54.0 °F - 46.9 °F 77% 30.22 in 10.0 mi NE 9.2 mph - N/A   Clear
9:53 AM 59.0 °F - 48.0 °F 67% 30.22 in 10.0 mi ENE 11.5 mph 19.6 mph N/A   Clear
10:53 AM 62.1 °F - 46.9 °F 58% 30.21 in 10.0 mi ENE 12.7 mph 20.7 mph N/A   Clear
11:53 AM 64.9 °F - 46.9 °F 52% 30.20 in 10.0 mi ENE 10.4 mph - N/A   Clear
12:53 PM 66.9 °F - 46.9 °F 49% 30.17 in 10.0 mi East 15.0 mph 19.6 mph N/A   Clear
1:53 PM 69.1 °F - 46.0 °F 44% 30.15 in 10.0 mi ENE 11.5 mph 20.7 mph N/A   Clear
2:53 PM 70.0 °F - 44.1 °F 39% 30.14 in 10.0 mi ENE 12.7 mph 19.6 mph N/A   Clear
3:53 PM 70.0 °F - 44.1 °F 39% 30.13 in 10.0 mi NE 10.4 mph - N/A   Clear
4:53 PM 69.1 °F - 46.0 °F 44% 30.13 in 10.0 mi NE 10.4 mph - N/A   Clear
5:53 PM 63.0 °F - 48.0 °F 58% 30.13 in 10.0 mi NE 6.9 mph - N/A   Clear
6:53 PM 60.1 °F - 46.9 °F 62% 30.15 in 10.0 mi Calm Calm - N/A   Clear
7:53 PM 55.0 °F - 46.9 °F 74% 30.16 in 10.0 mi Calm Calm - N/A   Clear
8:53 PM 53.1 °F - 46.9 °F 80% 30.17 in 10.0 mi Calm Calm - N/A   Clear
9:53 PM 52.0 °F - 46.9 °F 83% 30.16 in 10.0 mi NE 3.5 mph - N/A   Clear
10:53 PM 52.0 °F - 48.0 °F 86% 30.16 in 10.0 mi Calm Calm - N/A   Clear
11:53 PM 52.0 °F - 48.9 °F 89% 30.15 in 10.0 mi Calm Calm - N/A   Clear